Regional Weather Roundup
Issued by NWS

Home | Current Version | Previous Version | Graphics & Text | Print | Product List | Glossary On
Versions: 1 2 3 4 5 6 7 8 9 10 11 12 13 14 15 16 17 18 19 20 21 22 23 24 25 26 27 28 29 30 31 32 33 34 35 36 37 38 39 40 41 42 43 44 45 46 47 48 49 50
045
ASUS45 KCYS 252010
RWRWY

WYOMING REGIONAL WEATHER ROUNDUP
NATIONAL WEATHER SERVICE CHEYENNE WY
200 PM MDT TUE APR 25 2017

NOTE:  "FAIR" INDICATES FEW OR NO CLOUDS BELOW 12,000 FEET
WITH NO SIGNIFICANT WEATHER AND/OR OBSTRUCTIONS TO VISIBILITY.

WYZ001-252100-
YELLOWSTONE NATIONAL PARK

CITY           SKY/WX    TMP DP  RH WIND       PRES   REMARKS
LK YELLOWSTONE   N/A     39  25  57 VRB5      29.79S
W YELLOWSTONE  NOT AVBL

$$
WYZ002>013-054>058-071-098>099-252100-
NORTHERN WYOMING

CITY           SKY/WX    TMP DP  RH WIND       PRES   REMARKS
JACKSON        PTSUNNY   45  30  57 N7        29.75S
CODY           CLOUDY    38  32  79 N13       29.82S WCI  30
GREYBULL       CLOUDY    43  29  57 NW26G36   29.75R
WORLAND        FAIR      48  37  65 NW28G33   29.74S
SHERIDAN       LGT SNOW  34  30  85 N6        29.85R FOG     WCI  29
BUFFALO        NOT AVBL
GILLETTE       LGT SNOW  28  28 100 N18       29.79R WCI  15
HULETT         SNOW      28  27  93 NE9       29.80R VSB 1/2 WCI  20
NEWCASTLE      LGT SNOW  34  32  93 NE5       29.71R WCI  30

$$
WYZ014>020-022>026-101>103-252100-
CENTRAL WYOMING

CITY           SKY/WX    TMP DP  RH WIND       PRES   REMARKS
BIG PINEY      FAIR      45  26  47 N20G29    29.73R
PINEDALE       CLOUDY    37  32  81 NW20G29   29.74R WCI  27
DUBOIS         CLOUDY    43  18  36 NE9       29.73R
LANDER         FLURRIES  37  33  85 N10       29.77R WCI  30
RIVERTON       CLOUDY    38  31  76 N24G31    29.77R WCI  27
CASPER         LGT SNOW  30  26  85 N20G26    29.77R FOG     WCI  17
DOUGLAS        LGT SNOW  31  26  82 NW24G35   29.71R WCI  17

$$
WYZ021-027>030-104>119-252100-
SOUTHERN WYOMING

CITY           SKY/WX    TMP DP  RH WIND       PRES   REMARKS
EVANSTON       CLOUDY    40  29  64 W18G25    29.81R WCI  31
KEMMERER         N/A     37  32  81 W17G28    29.77F WCI  28
FORT BRIDGER   CLOUDY    46  31  55 NW20G29   29.80S
ROCK SPRINGS   LGT SNOW  37  31  78 NW8       29.74R WCI  31
DIXON          RAIN      43  32  63 NW14G21   29.72R
RAWLINS        CLOUDY    36  30  79 N15       29.73R WCI  27
SARATOGA       FLURRIES  32  32 100 N14G21    29.73R WCI  22
LARAMIE        LGT RAIN  36  31  82 N22G31    29.66R WCI  25
CHEYENNE       CLOUDY    50  27  40 NW21G30   29.61R
TORRINGTON     LGT RAIN  41  38  89 N20       29.65R
PINE BLUFFS    FAIR      55  30  38 NW20G29   29.59S

$$




USA.gov is the U.S. government's official web portal to all federal, state and local government web resources and services.